Wetbulb
56.20 56.70 56.77 56.36 56.47 56.49 55.58 55.61 55.87 56.08 55.76 56.48 57.60 58.29 58.53 58.78 59.30 59.11 59.33 58.84 55.38 55.86 55.87 54.08 53.74 53.75 51.48 50.80 49.86 47.23 46.12 45.64 44.07 42.20 43.79 43.42 44.03 45.76 44.03 44.75 44.79 46.17 46.50
55.91 56.01 55.84 56.35 56.11 55.72 55.55 56.26 56.81 56.41 55.51 55.72 56.71 57.63 57.95 58.53 59.15 58.13 57.64 55.76 54.58 53.94 53.70 51.97 52.04 50.70 50.17 49.16 47.54 45.45 44.48 44.72 42.63 40.99 43.63 41.13 40.16 41.63 42.17 44.72 44.26 44.30 45.48
55.17 55.41 55.66 55.61 55.60 55.01 55.62 56.24 56.98 57.07 57.17 57.88 57.38 57.27 57.57 56.97 57.89 57.88 57.35 53.90 52.81 54.13 54.22 52.29 50.54 49.13 47.82 46.18 45.35 44.86 43.54 43.27 42.08 39.47 38.74 39.42 39.90 40.59 42.90 43.18 42.71 42.60 42.08
54.85 54.99 54.88 55.31 55.48 56.09 56.54 56.77 57.17 57.37 57.44 57.98 58.27 58.17 58.31 57.54 57.52 55.86 55.31 56.12 54.97 53.66 52.93 49.79 48.58 47.76 47.02 44.29 43.65 42.82 41.44 39.64 39.29 38.65 37.99 38.38 39.06 41.65 39.95 38.66 37.39 37.91 35.80
54.65 54.57 54.58 55.43 55.95 56.35 56.94 57.45 57.51 57.49 57.76 58.34 58.40 58.55 58.89 58.23 55.67 54.75 53.71 52.41 51.78 49.44 48.44 47.40 47.13 46.06 43.11 43.14 42.62 40.93 40.17 38.45 37.94 36.11 34.86 34.33 36.42 35.06 35.66 35.71 32.51 33.31 34.12
55.76 54.92 55.60 55.95 55.85 56.31 56.57 56.92 57.64 57.74 57.72 58.19 58.03 57.89 57.59 56.36 48.16 45.62 49.62 51.30 50.25 46.75 44.55 43.11 42.97 41.07 39.14 37.88 37.50 37.14 39.36 36.12 33.09 32.50 33.66 34.22 35.30 32.54 33.26 31.61 30.60 29.82 29.18
56.36 56.39 56.44 56.77 56.45 56.90 57.00 56.80 57.21 57.81 58.36 58.28 57.96 57.05 55.42 54.16 43.63 43.45 42.36 47.64 46.39 45.16 42.05 40.44 38.81 37.41 36.92 35.25 33.02 32.32 31.73 31.04 32.22 33.49 32.24 31.96 30.28 32.33 31.03 29.90 30.33 29.75 29.58
56.81 57.00 57.16 57.08 56.71 57.19 57.17 57.19 57.79 57.82 56.87 55.20 53.03 51.02 49.01 46.41 41.09 40.33 40.55 43.65 42.38 41.81 41.40 39.45 36.59 34.76 33.91 31.95 29.77 28.40 28.09 28.73 28.72 30.30 31.65 32.22 32.56 31.52 30.53 29.83 29.29 29.42 30.86
56.07 56.60 57.02 57.38 57.15 57.05 56.46 52.60 49.35 48.29 46.37 45.28 45.27 45.05 44.08 40.88 38.79 38.01 38.84 37.45 35.22 34.64 34.93 34.64 33.40 32.15 32.45 32.23 29.21 27.46 27.66 28.26 30.04 28.60 27.69 26.75 26.17 26.22 27.05 29.07 27.62 26.43 25.48
54.91 55.85 56.53 56.58 53.56 51.76 48.36 45.90 43.39 42.50 39.95 38.87 37.45 38.61 37.69 37.82 36.97 36.85 36.63 34.13 31.56 30.40 30.63 30.50 30.60 30.05 30.22 29.46 28.51 28.23 26.79 28.01 27.48 28.33 28.60 27.27 26.18 27.03 24.81 27.20 26.87 23.57 23.73
52.68 52.39 52.01 51.62 48.50 44.79 42.30 41.56 39.43 36.87 35.09 33.42 32.19 32.54 34.03 35.39 35.62 35.87 35.55 33.48 30.48 28.87 27.45 26.59 27.88 29.03 29.61 29.13 29.21 28.51 27.23 28.20 25.04 26.16 25.77 25.24 25.62 25.76 25.47 25.47 25.86 24.51 22.84
46.88 45.29 44.07 43.43 43.86 42.01 39.64 37.83 36.41 34.58 32.18 30.72 29.59 28.54 29.07 30.57 32.71 32.77 32.40 31.74 31.24 28.15 25.92 26.40 27.74 29.09 29.35 27.86 27.88 26.26 24.86 25.16 25.40 23.84 22.42 22.39 22.83 22.65 22.90 23.45 23.76 23.82 24.55
42.56 41.53 42.22 41.84 39.45 39.10 36.76 35.22 33.94 33.60 31.94 30.66 29.24 27.17 26.25 26.97 27.52 29.29 29.36 28.56 27.68 26.09 26.76 27.41 28.28 28.28 26.80 25.81 25.09 24.31 23.23 23.78 22.90 21.62 20.82 21.31 21.24 21.46 21.69 21.80 22.08 22.22 22.90
38.62 37.19 36.60 35.37 34.67 35.19 35.27 34.55 33.33 32.39 31.45 30.28 29.22 26.66 25.59 25.14 24.77 25.46 25.75 26.25 26.27 26.45 26.46 26.67 25.50 24.80 24.53 23.83 23.67 22.97 22.68 22.15 20.32 20.16 19.84 19.75 19.96 19.18 18.61 19.24 17.80 19.11 18.88
34.88 34.03 33.35 32.45 31.13 30.20 30.40 31.55 31.65 32.82 34.50 33.04 30.44 28.54 26.73 24.30 23.98 25.36 25.05 24.73 24.99 24.80 25.12 25.21 24.01 23.05 21.94 22.16 21.58 20.82 20.91 20.20 19.47 19.29 17.72 16.79 16.38 16.65 16.05 16.94 16.86 17.58 16.18
34.27 33.72 33.09 32.51 31.89 30.77 29.05 27.81 30.19 29.81 29.26 28.66 27.81 26.83 26.39 26.93 27.45 27.56 27.16 26.24 25.09 24.09 23.12 21.54 20.26 20.67 20.49 20.44 20.30 19.69 18.91 17.23 17.08 16.18 15.07 14.51 14.14 14.46 13.91 15.29 15.99 15.56 14.91
31.09 30.62 29.96 30.00 29.41 27.95 26.95 25.73 24.05 26.89 28.62 28.45 28.19 27.94 27.31 26.99 26.47 26.08 25.42 24.76 23.51 23.42 22.11 20.49 19.74 18.90 18.79 18.68 18.36 17.41 15.94 16.05 14.72 13.78 13.16 13.31 13.57 13.24 12.29 13.05 13.89 14.01 14.11
28.12 28.38 28.09 27.39 27.14 26.68 26.31 26.19 26.56 25.58 24.89 25.37 27.19 26.87 26.97 26.96 26.64 26.62 25.25 24.16 22.31 21.68 20.66 19.59 18.42 18.11 17.38 16.89 16.43 15.21 14.43 13.50 12.64 12.14 11.87 12.17 11.85 11.41 11.28 11.61 12.37 12.19 13.37
27.42 26.77 27.08 27.14 27.49 28.15 28.36 27.77 26.74 25.86 24.51 23.08 22.77 22.72 23.96 24.30 23.73 22.97 22.65 22.07 20.77 19.75 19.28 18.70 18.09 16.81 16.14 14.99 14.37 12.88 11.75 11.28 10.63 10.22 10.72 10.31 10.68 10.56 10.18 10.87 11.47 10.01 10.60
24.77 24.72 25.16 25.78 25.27 24.55 24.92 24.96 24.46 24.00 23.54 22.26 21.00 20.30 21.24 21.27 19.86 19.26 19.42 19.56 18.54 17.71 17.49 16.56 15.51 14.63 13.70 12.95 12.19 11.64 11.18 10.80 10.65 10.49 10.06 9.77 10.08 10.23 9.50 9.68 10.50 10.41 10.91
23.70 22.70 22.14 21.83 21.51 21.72 21.73 21.02 20.85 20.13 19.50 18.79 17.81 18.22 17.61 18.48 16.99 16.67 15.79 15.46 15.19 14.38 13.64 13.59 12.91 12.00 11.90 11.16 10.55 9.73 8.45 8.23 7.87 7.72 7.96 8.32 8.56 8.15 9.56 10.13 10.01 10.40 10.71
21.75 20.75 20.25 19.70 19.76 19.75 19.73 19.52 19.19 18.60 17.65 15.91 15.33 14.66 14.33 15.56 14.74 13.69 12.88 12.47 12.58 12.09 12.04 10.64 10.17 9.66 9.13 7.87 7.11 6.43 5.26 4.85 5.79 6.67 6.92 7.01 7.65 8.01 8.06 8.60 8.75 9.27 9.73
20.02 18.93 18.43 17.69 17.24 16.36 16.54 16.27 15.60 14.83 13.91 13.83 13.53 12.66 12.48 11.88 11.33 10.81 9.42 9.25 9.63 8.93 8.08 7.86 6.86 5.49 6.74 5.72 5.41 5.03 3.59 3.83 5.12 5.76 5.73 5.48 5.65 6.40 7.20 7.09 7.71 7.96 8.56
17.30 16.57 14.97 14.16 13.76 13.41 13.11 12.74 11.78 10.25 10.88 10.98 10.99 10.34 9.62 8.66 8.12 6.81 6.42 7.02 6.90 6.85 5.82 4.44 3.91 2.48 2.51 2.60 4.11 4.47 4.48 4.37 4.94 5.78 4.07 3.42 3.78 5.11 6.33 6.24 7.00 7.32 8.08
13.47 12.44 11.43 10.91 10.36 9.87 9.31 8.57 8.30 8.49 8.17 7.91 7.75 7.51 7.04 7.29 6.35 6.03 5.34 4.21 2.66 3.48 3.15 2.47 2.31 1.98 1.37 -0.34 -0.11 0.35 0.96 0.75 2.29 1.05 2.45 3.10 3.05 3.58 4.26 5.20 5.93 7.18 7.34
9.96 9.26 9.09 8.89 7.98 7.77 7.12 6.03 5.30 5.27 4.85 4.78 4.91 4.87 4.71 4.63 4.67 3.75 2.66 2.03 1.47 1.22 1.09 2.18 1.66 -0.06 -0.72 0.56 1.09 0.39 -1.65 -2.60 -1.43 -1.96 -0.47 1.98 2.61 3.55 4.80 4.82 5.28 6.20 6.91
MSLP
1009.59 1010.01 1010.63 1011.11 1011.81 1012.54 1012.78 1012.80 1012.89 1013.46 1013.93 1014.26 1014.48 1014.94 1015.31 1015.81 1016.16 1016.75 1016.92 1016.95 1017.64 1018.01 1017.89 1018.41 1018.77 1019.22 1019.46 1019.82 1020.29 1020.65 1020.99 1021.38 1021.98 1022.32 1022.68 1022.94 1023.10 1023.36 1023.89 1023.96 1023.73 1023.44 1023.51
1008.48 1009.40 1009.73 1010.37 1010.92 1011.21 1011.39 1011.81 1012.49 1012.79 1013.16 1013.20 1013.71 1014.02 1014.43 1014.90 1015.23 1015.45 1015.80 1016.51 1017.26 1016.87 1017.44 1017.74 1018.01 1018.36 1018.68 1019.19 1019.73 1020.30 1020.72 1021.24 1021.59 1022.48 1022.68 1023.02 1023.13 1023.49 1023.54 1023.32 1023.21 1023.23 1023.07
1007.43 1008.16 1008.96 1009.45 1009.80 1009.79 1010.02 1010.39 1011.00 1011.47 1011.93 1012.39 1012.84 1013.05 1013.28 1013.54 1014.08 1014.56 1015.18 1015.81 1016.31 1015.82 1016.79 1017.16 1017.34 1017.92 1018.32 1018.96 1019.54 1019.94 1020.46 1021.30 1021.56 1022.10 1022.63 1023.07 1023.30 1023.45 1023.04 1022.82 1022.95 1022.98 1023.04
1006.28 1006.77 1007.40 1007.82 1007.72 1008.17 1008.89 1009.40 1009.79 1010.07 1010.51 1010.90 1011.32 1011.64 1012.12 1012.55 1013.07 1013.81 1014.49 1014.81 1015.16 1015.62 1016.25 1016.45 1016.91 1017.46 1017.91 1018.61 1019.22 1019.81 1020.67 1021.31 1021.60 1022.23 1022.52 1022.98 1023.08 1022.85 1022.92 1022.74 1022.69 1022.82 1022.83
1004.95 1005.47 1005.22 1006.04 1007.00 1007.60 1008.09 1008.48 1008.86 1009.24 1009.34 1009.69 1010.23 1010.69 1011.15 1011.65 1012.21 1012.80 1013.59 1014.10 1014.54 1015.22 1015.79 1016.01 1016.67 1017.32 1017.81 1018.43 1019.09 1019.83 1020.61 1021.21 1021.82 1022.23 1022.55 1022.91 1022.63 1022.79 1022.58 1022.88 1023.03 1022.85 1022.56
1003.35 1003.70 1004.45 1005.03 1005.72 1006.25 1006.80 1007.26 1007.85 1008.17 1008.57 1009.05 1009.17 1009.59 1010.33 1010.73 1011.33 1011.90 1012.61 1013.31 1013.75 1014.55 1015.42 1016.13 1016.70 1017.09 1017.86 1018.43 1019.09 1019.83 1020.48 1021.13 1021.67 1022.00 1022.20 1022.24 1022.20 1022.73 1022.86 1023.04 1023.00 1022.63 1021.72
1001.92 1002.66 1003.36 1003.98 1004.40 1005.04 1005.90 1006.59 1006.89 1007.26 1007.90 1008.36 1008.79 1009.22 1009.66 1010.25 1010.86 1011.53 1012.18 1012.89 1013.49 1014.24 1015.08 1016.04 1016.92 1017.72 1018.15 1019.02 1019.85 1020.57 1021.03 1021.60 1021.74 1021.94 1021.96 1022.12 1022.36 1022.56 1022.92 1022.78 1022.61 1022.37 1021.87
1001.10 1001.58 1002.35 1002.98 1003.47 1004.28 1005.12 1005.78 1006.44 1007.01 1007.51 1008.05 1008.58 1009.03 1009.46 1009.96 1010.67 1011.53 1012.32 1013.12 1013.81 1014.49 1015.28 1016.09 1016.94 1018.01 1018.72 1019.22 1020.04 1020.75 1021.30 1021.71 1022.09 1022.11 1022.12 1022.25 1022.48 1022.76 1022.98 1022.86 1022.70 1022.34 1021.78
1000.16 1000.70 1001.44 1002.37 1003.19 1003.89 1004.61 1005.66 1006.52 1007.09 1007.77 1008.39 1008.91 1009.38 1009.90 1010.66 1011.11 1011.84 1012.58 1013.65 1014.55 1015.49 1016.27 1016.77 1017.41 1018.27 1018.97 1019.57 1020.11 1020.73 1021.27 1021.80 1022.27 1022.60 1022.63 1022.80 1022.99 1023.22 1023.41 1022.70 1022.25 1021.99 1021.41
999.65 1000.51 1001.51 1002.38 1003.51 1004.26 1005.20 1006.38 1007.18 1007.74 1008.58 1009.41 1009.93 1010.41 1010.75 1011.39 1011.97 1012.69 1013.10 1014.03 1015.09 1016.12 1017.14 1017.90 1018.40 1018.76 1019.51 1020.00 1020.30 1020.64 1021.16 1021.60 1022.06 1022.26 1022.44 1022.63 1022.90 1022.97 1023.09 1022.76 1022.46 1022.18 1021.89
1000.49 1001.20 1002.00 1002.79 1003.70 1004.67 1005.72 1007.09 1007.88 1008.71 1009.66 1010.49 1011.08 1011.93 1012.26 1012.50 1012.91 1013.27 1013.80 1014.63 1015.63 1016.71 1017.82 1018.77 1019.25 1019.62 1020.03 1020.44 1020.67 1020.85 1021.14 1021.57 1022.19 1022.36 1022.48 1022.57 1022.75 1022.64 1022.68 1022.78 1022.76 1022.59 1022.16
1001.09 1002.28 1003.24 1003.91 1004.60 1005.41 1006.33 1007.93 1008.86 1009.49 1010.42 1011.55 1012.14 1012.99 1013.62 1013.88 1014.15 1014.37 1014.74 1015.37 1016.25 1017.00 1018.23 1019.09 1019.73 1020.20 1020.60 1020.97 1021.01 1021.39 1021.74 1022.09 1022.36 1022.44 1022.51 1022.41 1022.41 1022.47 1022.57 1022.64 1022.66 1022.56 1022.28
1001.97 1003.08 1004.13 1005.17 1005.89 1006.74 1007.57 1008.63 1009.36 1010.16 1011.07 1012.13 1012.89 1013.58 1014.41 1015.08 1015.34 1015.64 1015.99 1016.71 1017.35 1017.95 1018.64 1019.29 1019.96 1020.44 1020.88 1021.08 1021.35 1021.75 1022.09 1022.38 1022.51 1022.57 1022.56 1022.51 1022.67 1022.74 1022.63 1022.53 1022.40 1022.17 1021.80
1003.17 1004.02 1005.27 1006.44 1006.95 1007.81 1008.60 1009.37 1010.00 1010.88 1011.65 1012.47 1013.25 1014.27 1015.14 1015.69 1016.28 1016.76 1017.14 1017.71 1018.32 1018.79 1019.49 1020.04 1020.46 1020.79 1021.12 1021.52 1021.77 1022.13 1022.40 1022.66 1022.83 1022.78 1022.81 1022.90 1022.97 1022.90 1022.75 1022.58 1022.36 1021.90 1021.30
1004.65 1005.47 1006.31 1007.31 1008.25 1008.99 1009.84 1010.57 1010.82 1011.56 1012.15 1012.86 1013.86 1014.60 1015.37 1016.35 1017.17 1017.51 1017.84 1018.35 1018.89 1019.38 1019.77 1020.14 1020.46 1020.76 1021.12 1021.56 1022.08 1022.49 1022.72 1022.85 1022.90 1023.06 1023.14 1023.12 1023.00 1022.84 1022.66 1022.59 1022.17 1021.65 1021.11
1005.34 1006.32 1007.67 1008.33 1008.96 1009.99 1011.07 1012.10 1012.77 1012.98 1013.36 1014.17 1014.87 1015.42 1016.51 1017.14 1017.83 1018.29 1018.66 1019.03 1019.42 1019.68 1019.87 1020.29 1020.82 1021.23 1021.66 1022.08 1022.46 1022.69 1023.02 1023.34 1023.50 1023.62 1023.54 1023.26 1022.93 1022.74 1022.59 1022.38 1022.00 1021.47 1020.80
1007.48 1008.23 1009.17 1009.38 1010.01 1010.87 1012.20 1012.91 1013.63 1014.85 1015.11 1015.68 1016.40 1017.02 1017.52 1018.00 1018.34 1018.82 1019.21 1019.52 1019.91 1020.06 1020.35 1020.91 1021.32 1021.79 1022.28 1022.61 1022.90 1023.21 1023.42 1023.67 1023.90 1023.82 1023.63 1023.33 1023.06 1022.86 1022.63 1022.05 1021.60 1021.17 1020.49
1008.90 1008.84 1010.24 1011.54 1011.70 1012.26 1012.97 1013.57 1014.24 1015.07 1015.79 1016.81 1017.66 1018.04 1018.58 1018.91 1019.14 1019.37 1019.82 1020.14 1020.45 1020.77 1021.21 1021.70 1022.06 1022.37 1022.76 1023.07 1023.37 1023.60 1023.81 1023.98 1024.02 1023.92 1023.64 1023.43 1023.26 1022.94 1022.45 1021.96 1021.53 1021.00 1020.27
1009.89 1010.48 1011.11 1012.29 1013.45 1013.77 1014.18 1014.60 1015.21 1016.07 1016.88 1017.73 1018.52 1019.17 1019.55 1019.65 1019.93 1020.28 1020.63 1020.85 1021.14 1021.56 1021.98 1022.28 1022.85 1023.10 1023.30 1023.65 1023.99 1024.13 1024.24 1024.19 1024.16 1023.93 1023.63 1023.44 1023.21 1022.84 1022.30 1021.83 1021.27 1020.93 1020.44
1012.40 1013.11 1013.36 1013.86 1014.77 1015.03 1015.71 1015.80 1016.41 1017.10 1017.84 1018.63 1019.38 1020.02 1020.43 1020.44 1020.68 1021.18 1021.70 1021.96 1022.24 1022.57 1022.78 1023.11 1023.71 1023.90 1024.04 1024.23 1024.33 1024.35 1024.28 1024.12 1023.88 1023.71 1023.50 1023.36 1023.09 1022.74 1022.24 1021.71 1021.14 1020.46 1019.82
1014.60 1015.04 1015.19 1015.50 1016.04 1016.72 1017.19 1017.33 1018.24 1018.79 1019.39 1019.98 1020.73 1021.29 1021.47 1021.30 1021.88 1022.33 1022.78 1023.13 1023.43 1023.67 1023.96 1024.26 1024.49 1024.60 1024.66 1024.68 1024.63 1024.56 1024.59 1024.45 1024.28 1024.04 1023.73 1023.36 1023.00 1022.48 1021.97 1021.36 1020.96 1020.24 1019.51
1016.18 1016.70 1017.01 1017.34 1017.69 1018.07 1018.52 1019.11 1019.67 1020.20 1020.73 1021.24 1021.81 1022.42 1022.57 1022.70 1023.01 1023.42 1023.86 1024.24 1024.53 1024.81 1025.04 1025.17 1025.11 1025.12 1025.10 1025.15 1025.07 1024.98 1024.82 1024.57 1024.27 1023.88 1023.48 1023.18 1022.82 1022.42 1021.91 1021.33 1020.64 1019.86 1019.18
1017.95 1018.15 1018.65 1019.07 1019.35 1019.75 1020.20 1020.70 1021.17 1021.56 1021.99 1022.53 1022.89 1023.13 1023.36 1023.74 1024.09 1024.50 1024.98 1025.35 1025.42 1025.56 1025.75 1025.66 1025.64 1025.63 1025.45 1025.49 1025.43 1025.19 1024.94 1024.59 1024.28 1023.99 1023.48 1023.16 1022.82 1022.26 1021.60 1021.02 1020.21 1019.54 1018.89
1019.82 1020.03 1020.37 1020.84 1021.19 1021.59 1022.00 1022.26 1022.71 1023.05 1023.32 1023.67 1023.97 1024.21 1024.53 1025.01 1025.33 1025.60 1025.84 1026.01 1025.94 1025.89 1026.01 1026.07 1025.98 1025.93 1025.82 1025.68 1025.39 1025.12 1024.79 1024.53 1024.29 1023.72 1023.71 1023.29 1022.70 1021.92 1021.31 1020.67 1019.92 1019.25 1018.58
1021.82 1022.17 1022.39 1022.36 1022.59 1023.14 1023.47 1023.74 1024.10 1024.43 1024.78 1025.06 1025.18 1025.26 1025.51 1025.67 1025.87 1026.06 1026.20 1026.30 1026.34 1026.09 1025.97 1025.97 1025.90 1025.77 1025.65 1025.66 1025.44 1025.16 1024.82 1024.58 1024.15 1024.14 1023.66 1022.99 1022.31 1021.74 1021.11 1020.38 1019.63 1018.84 1018.17
1023.28 1023.65 1023.87 1024.00 1024.17 1024.40 1024.88 1025.24 1025.51 1025.77 1025.93 1026.05 1026.05 1026.14 1026.25 1026.29 1026.33 1026.43 1026.43 1026.39 1026.33 1026.22 1026.09 1025.80 1025.75 1025.77 1025.64 1025.15 1024.69 1024.55 1024.43 1024.23 1023.91 1023.70 1023.37 1022.53 1021.75 1021.11 1020.51 1019.85 1019.19 1018.45 1017.66
Wind_Speed
19 18 18 18 19 18 18 19 21 18 18 18 19 17 16 16 15 14 14 11 11 13 12 11 12 11 7 6 6 5 4 4 7 2 2 3 2 4 3 3 3 5 5
18 18 19 18 18 19 19 18 16 16 16 16 14 15 16 15 14 12 12 9 11 8 10 10 12 7 9 8 7 8 7 6 4 4 6 3 3 2 3 6 4 5 5
19 19 18 18 20 22 21 20 19 19 18 15 16 16 16 14 12 14 13 11 12 13 13 12 9 9 9 7 7 7 6 4 3 2 4 1 3 3 5 5 5 6 5
20 19 19 21 22 20 18 18 18 19 17 17 16 16 15 12 14 11 13 14 13 11 12 9 9 12 10 10 8 7 6 6 5 4 3 4 4 3 3 5 6 4 7
19 19 23 19 18 17 17 17 17 17 16 16 14 15 15 13 9 12 12 10 10 9 9 7 7 7 10 9 7 8 8 5 5 4 3 3 4 4 5 3 6 6 9
18 21 17 17 18 18 17 18 17 17 16 14 16 15 13 9 11 15 14 11 11 10 8 7 8 14 12 15 14 11 7 7 5 3 3 4 5 4 4 5 6 6 5
18 17 16 16 17 17 16 17 17 16 15 15 14 12 12 11 13 14 11 8 9 9 11 10 9 8 13 13 16 15 12 9 5 3 4 4 4 2 5 7 7 7 8
16 15 16 16 16 15 15 16 14 11 11 9 7 7 7 5 12 14 12 9 8 9 10 11 12 11 11 12 10 9 7 6 5 4 3 3 2 4 5 7 8 9 8
15 15 15 15 14 13 11 7 5 5 4 4 5 6 6 6 15 16 14 10 11 11 9 10 11 11 14 14 9 9 8 7 7 7 6 4 2 3 6 5 6 6 7
12 11 11 10 9 9 9 7 4 7 8 7 9 8 10 10 15 15 14 9 12 9 10 11 14 12 13 9 6 7 8 7 5 3 2 1 2 2 3 5 5 6 6
10 11 10 9 10 10 9 8 9 10 10 10 12 10 11 9 10 15 15 8 9 9 8 7 7 12 12 10 8 5 6 6 5 2 0 1 2 2 3 4 5 6 7
12 11 10 9 7 9 13 10 10 11 12 10 11 10 9 10 14 18 19 16 13 10 8 6 8 12 13 12 9 13 11 5 2 1 1 2 3 3 4 5 7 8 9
14 13 12 11 11 10 12 11 10 9 9 8 7 8 8 7 10 21 21 19 16 10 7 11 15 16 15 11 12 11 6 3 2 1 2 3 4 5 7 7 8 10 11
15 14 12 11 12 11 8 7 8 7 7 7 8 8 7 7 7 6 8 10 13 11 11 9 9 9 9 7 5 5 3 3 3 3 4 4 5 5 6 6 8 8 9
13 12 12 11 12 12 11 8 7 7 6 8 8 8 8 8 6 9 8 6 6 8 9 6 5 5 4 3 3 3 3 3 4 4 4 5 6 6 6 6 7 8 10
14 11 10 9 10 11 11 14 24 22 24 23 20 14 11 17 17 16 15 16 15 9 6 5 4 4 3 2 1 2 3 3 3 4 5 6 6 6 7 7 8 8 10
14 13 10 11 10 11 10 11 14 18 27 25 23 20 19 16 16 16 16 15 11 7 5 4 3 3 2 2 2 2 3 3 5 5 6 6 6 7 8 8 8 9 10
16 20 13 9 10 10 9 9 8 9 11 11 16 15 18 17 16 15 13 8 5 6 4 3 3 3 3 2 3 3 4 5 5 6 6 7 7 8 8 8 9 10 10
13 11 12 11 9 10 9 9 9 10 10 10 9 10 12 17 17 15 12 6 5 4 4 3 3 3 3 3 3 3 4 5 6 7 7 7 7 7 8 9 10 12 13
14 18 14 10 9 10 8 9 9 9 9 8 7 7 5 6 7 7 6 6 5 4 4 4 4 4 4 4 4 5 6 7 8 8 8 8 8 8 9 10 9 10 11
10 11 15 11 10 9 8 9 9 9 9 9 9 9 10 7 7 7 6 6 5 5 5 4 4 4 4 5 6 6 7 8 8 8 8 8 8 8 9 9 10 10 11
10 10 10 10 9 10 10 9 9 9 9 8 8 9 11 7 6 6 6 6 5 5 4 4 4 4 5 5 6 7 8 8 8 8 8 8 8 8 9 10 10 10 10
11 11 11 10 10 11 10 9 9 9 8 8 7 6 7 6 6 6 5 4 4 4 4 4 4 5 5 5 6 7 8 8 8 8 9 8 9 9 9 10 10 10 10
11 11 11 10 9 9 9 9 9 10 8 7 6 6 6 5 5 5 4 4 4 4 3 3 4 6 6 7 7 7 7 7 8 8 9 10 10 11 10 10 11 12 12
10 10 9 9 9 9 9 8 8 7 6 5 5 5 4 4 4 4 3 4 4 4 6 5 4 6 8 10 10 11 10 11 9 10 9 11 13 14 12 10 11 12 13
10 10 9 8 8 8 7 6 6 6 5 5 5 4 4 4 4 4 4 5 5 6 7 5 6 9 11 10 11 11 12 12 11 12 9 10 10 10 9 11 14 11 13
Wind_Direction
203 203 202 202 202 203 208 212 215 216 213 215 220 224 223 221 214 211 217 212 206 221 229 213 235 227 210 205 201 178 178 179 211 190 173 150 190 257 280 269 271 256 257
201 203 204 203 203 208 214 219 215 219 221 228 228 223 222 224 224 215 211 211 227 212 217 208 224 201 205 192 184 187 183 180 143 171 192 186 186 207 248 272 286 282 280
196 199 201 201 205 210 213 209 208 214 221 217 214 214 222 219 216 215 217 202 207 204 218 216 213 193 191 181 181 169 155 148 121 143 159 153 220 236 242 270 289 299 289
199 198 201 207 211 212 213 213 213 214 216 215 213 216 219 219 217 209 210 211 212 214 218 201 188 193 190 167 159 154 146 141 140 163 171 201 219 231 271 284 279 293 293
198 203 209 208 213 216 216 216 216 218 219 217 216 222 225 228 207 205 205 204 200 190 187 172 177 175 147 152 152 151 150 145 157 161 161 189 231 247 272 307 284 300 292
195 211 209 205 206 211 213 215 217 220 222 220 220 221 222 225 213 196 190 197 192 170 158 128 130 124 116 111 102 101 143 154 149 150 179 225 244 254 275 295 295 298 309
200 206 206 204 206 207 211 217 220 222 221 221 221 215 211 208 186 186 168 165 162 157 142 137 124 115 116 113 100 100 94 83 82 162 211 214 244 262 296 285 281 282 278
202 201 202 201 206 204 205 214 217 218 216 209 195 179 164 157 157 144 132 123 121 127 137 138 130 131 130 127 126 122 120 123 137 163 168 157 259 291 280 287 293 289 283
201 200 194 195 199 196 190 152 124 129 111 96 104 118 120 111 126 122 114 109 99 92 97 109 120 117 124 131 129 134 138 139 124 100 79 69 28 319 300 298 287 305 304
193 185 170 159 139 128 123 114 79 90 93 87 77 75 97 112 112 118 116 118 111 108 95 92 99 112 126 143 138 155 160 154 156 137 112 150 286 264 309 292 302 291 303
115 116 118 122 117 110 96 102 107 101 96 88 84 67 67 77 100 111 116 115 121 112 106 109 107 122 132 137 140 132 121 129 116 112 330 330 275 307 309 304 297 290 287
105 94 93 97 97 105 110 107 104 106 101 97 94 79 64 66 76 86 91 98 110 115 117 114 117 131 126 123 110 107 102 109 101 79 318 296 317 314 317 308 296 293 283
101 99 100 94 95 97 106 110 106 103 108 107 101 97 88 76 73 79 86 90 91 97 108 121 130 125 116 99 93 102 95 81 54 343 326 324 328 321 311 306 302 296 288
105 104 99 98 91 86 87 89 96 102 110 114 114 110 106 95 87 87 90 94 98 99 108 107 99 94 82 94 101 88 71 52 20 347 344 334 319 313 307 310 303 302 296
98 99 95 93 92 84 68 64 78 63 101 124 117 116 113 101 93 103 103 100 100 108 116 117 108 102 99 96 91 79 63 29 4 359 336 320 310 303 302 306 296 299 293
103 96 101 103 98 93 89 82 69 82 87 89 90 97 88 98 98 97 104 109 112 111 95 99 93 88 81 72 39 26 23 3 356 336 315 304 301 301 304 302 296 293 294
81 85 84 87 91 95 93 92 96 77 81 85 90 95 100 110 109 106 100 98 86 81 84 88 94 87 72 57 32 11 342 349 338 313 306 302 300 302 300 299 300 297 293
81 82 77 63 75 83 91 96 100 98 96 92 82 90 86 85 82 83 92 90 73 67 71 76 84 87 56 19 358 347 337 327 316 311 306 303 302 298 299 299 300 299 297
71 76 80 81 68 73 79 82 85 91 94 97 90 68 67 73 68 60 53 53 51 66 61 62 68 60 44 15 3 336 323 317 319 313 304 299 299 296 295 295 295 296 297
65 67 71 71 68 67 67 76 80 86 91 88 77 70 64 67 64 63 59 61 62 61 53 60 50 36 17 354 335 325 316 316 313 310 307 300 293 292 294 295 293 295 296
67 63 70 70 68 69 68 69 74 81 86 83 71 60 55 72 69 64 65 55 51 50 41 25 20 6 347 333 323 321 313 310 306 303 299 295 292 291 289 295 294 293 297
68 70 68 71 76 75 77 77 79 80 82 84 81 67 64 67 70 69 62 50 42 39 29 17 357 349 338 333 325 315 307 303 301 299 296 290 293 298 296 293 293 296 299
72 76 74 72 75 79 77 74 74 76 76 72 71 70 63 61 58 56 55 41 41 33 20 4 347 338 337 327 319 310 302 300 304 301 295 302 296 295 299 295 294 298 299
67 72 75 73 69 73 75 77 76 69 69 65 64 64 64 64 59 53 51 34 8 360 351 341 333 331 330 321 316 311 300 300 295 294 302 295 292 292 292 294 293 295 296
65 70 72 73 74 75 74 69 68 65 62 57 66 69 67 51 46 35 12 352 341 329 328 320 319 319 312 312 302 303 303 300 298 303 291 288 284 287 286 287 290 294 296
71 73 71 72 74 71 69 71 68 66 66 64 61 53 33 12 2 347 340 329 331 324 319 317 309 311 311 305 303 310 311 304 298 297 293 282 281 285 288 291 294 294 295